Regional Weather Roundup
Issued by NWS Wilmington, NC

Home | Current Version | Previous Version | Text Only | Print | Product List | Glossary On
Versions: 1 2 3 4 5 6 7 8 9 10 11 12 13 14 15 16 17 18 19 20 21 22 23 24 25 26 27 28 29 30 31 32 33 34 35 36 37 38 39 40 41 42 43 44 45 46 47 48 49 50
000
ASUS42 KILM 051213
RWRILM
RWRILM
REGIONAL HOURLY WEATHER ROUNDUP
NATIONAL WEATHER SERVICE WILMINGTON NC
800 AM EDT THU MAY 05 2016

NOTE: "FAIR" INDICATES FEW OR NO CLOUDS BELOW 12,000 FEET WITH NO
SIGNIFICANT WEATHER AND/OR OBSTRUCTIONS TO VISIBILITY.

...............WFO WILMINGTON COUNTY WARNING AREA...............

......COASTAL NC AND SC COUNTIES......

CITY           SKY/WX    TMP DP  RH WIND       PRES   REMARKS
WILMINGTON     CLOUDY    63  61  93 NE5       29.53S FOG
N MYRTLE BEACH MOSUNNY   59  50  72 W7        29.53S
MYRTLE BEACH   SUNNY     59  46  63 W6        29.57S

......INLAND NC AND SC COUNTIES.......

CITY           SKY/WX    TMP DP  RH WIND       PRES   REMARKS
LUMBERTON      CLOUDY    59  54  83 N5        29.53R
ELIZABETHTOWN  CLOUDY    59  56  88 CALM      29.54S
WHITEVILLE     NOT AVBL
FLORENCE       CLOUDY    57  50  77 W8        29.56R
DARLINGTON     PTSUNNY   57  50  77 NW12      29.57R
KINGSTREE      PTSUNNY   54  46  76 W8        29.58R
HARTSVILLE     PTSUNNY   57  46  67 NW3       29.57R
BENNETTSVILLE  PTSUNNY   57  54  88 CALM      29.55S
CONWAY         FAIR      55  52  88 SW3       29.55S FOG
GEORGETOWN     FAIR      55  50  82 W7        29.59R
MARION         CLOUDY    55  52  88 CALM      29.55S

....................REST OF NORTH CAROLINA......................

.........EASTERN NC.........

CITY           SKY/WX    TMP DP  RH WIND       PRES   REMARKS
CAPE HATTERAS  CLOUDY    57  55  93 NE13G20   29.52F
JACKSONVILLE   CLOUDY    61  60  97 NE8       29.54S
MOREHEAD CITY  MOSUNNY   61  57  87 N10       29.52S
KENANSVILLE    CLOUDY    61  60  96 CALM      29.55S FOG
NEW BERN       CLOUDY    60  55  83 NE12      29.56R
ELIZABETH CITY CLOUDY    52  52 100 NE17      29.59R FOG

.........CENTRAL NC.........

CITY           SKY/WX    TMP DP  RH WIND       PRES   REMARKS
RALEIGH DURHAM CLOUDY    58  56  93 NW5       29.56R FOG
ROCKY MOUNT    CLOUDY    56  54  93 NE9       29.57R
ROANOKE RAPIDS NOT AVBL
FAYETTEVILLE   CLOUDY    58  52  80 NE3       29.53S
HOFFMAN        LGT RAIN  56  49  77 N8        29.55S

.........WESTERN NC.........

CITY           SKY/WX    TMP DP  RH WIND       PRES   REMARKS
CHARLOTTE      CLOUDY    54  44  69 N8        29.62R
GREENSBORO     LGT RAIN  50  48  93 N7        29.59R FOG
HICKORY        NOT AVBL
BOONE          NOT AVBL
ASHEVILLE      NOT AVBL

.....................REST OF SOUTH CAROLINA.....................

.........EASTERN SC.........

CITY           SKY/WX    TMP DP  RH WIND       PRES   REMARKS
CHARLESTON     MOSUNNY   58  48  69 W12G21    29.61R
BEAUFORT MCAS  SUNNY     59  49  69 W14G23    29.65R
HILTON HEAD    NOT AVBL

.........CENTRAL SC.........

CITY           SKY/WX    TMP DP  RH WIND       PRES   REMARKS
COLUMBIA       MOSUNNY   59  45  59 W13       29.62R
ORANGEBURG     SUNNY     56  47  71 NW10G18   29.63R
SUMTER SHAW    MOSUNNY   57  47  69 NW13      29.57R

.........WESTERN SC.........

CITY           SKY/WX    TMP DP  RH WIND       PRES   REMARKS
GREENVILLE     NOT AVBL
ROCK HILL      PTSUNNY   54  43  66 N7        29.62R
ANDERSON       SUNNY     53  42  66 W9        29.67R
CLEMSON        NOT AVBL
GREENWOOD      SUNNY     50  44  80 NW3       29.68R


...................COASTAL AND OFFSHORE REPORTS..................

................LOCAL PIERS AND NC RESERVE................


STATION/POSITION TIME  SKY/WX   TEMP    WIND        PRES    VSBY
                                AIR SEA DIR/SP/G
                 (UTC)          (F)     (DEG/KT/KT) (MB)    (MI)
JOHNY MRCER PIER 1100            62 69   10/  4/  6  998.8R
NC RESRV MASNBRO NOT AVBL
OCEAN CREST PIER NOT AVBL
SPRINGMAID  PIER 1100            58 70  280/  5/  7  999.9R


................COASTAL AND OFFSHORE BUOYS................


STATION/POSITION TIME  SKY/WX   TEMP    WIND        PRES    VSBY
                                AIR SEA DIR/SP/G
                 (UTC)          (F)     (DEG/KT/KT) (MB)    (MI)
DIMNDSHOAL 41025 1150            60 71   10/ 17/ 21  998.9F
WVE H/P(F/S)=  4/ 7 SWL H/P/D(F/S/D)=  2/120/ 9

CAPE LOOKOUT     1100            63      40/ 17/ 20  999.0F
ONSLOW BAY 41036 NOT AVBL
ONSLOW BAY 41064 NOT AVBL
ONSLOW BAY 41159 1125               73                N/A
WVE H/P(F/S)=  4/ 6

5SE WRITBC 41038 1108            67 69   70/  8/ 12 1000.2R
MASNBO INL 41110 1106               69                N/A
WVE H/P(F/S)=  3/ 6

WILM HARBR 41108 1126               69                N/A
WVE H/P(F/S)=  3/ 8

27SE WRITB 41037 1108            69 72   60/ 12/ 16  998.9R
FRYING PAN 41013 1100            68 71  300/ 10/ 12  999.4R
SUNST NRSH 41024 1108            63 70  300/ 10/ 14  999.6R
CAPRS NRSH 41029 1108            62 70  290/ 17/ 23 1001.2R
EDISTO     41004 1150            67 74  280/ 21/ 25 1000.7R
WVE H/P(F/S)=  4/ 5 SWL H/P/D(F/S/D)=  2/ 8



..........OFFSHORE BUOYS BEYOND 100 NM OFFSHORE...........
.....IN A TRIANGLE---HAT TO BERMUDA TO BAHAMAS TO HAT.....


STATION/POSITION TIME  SKY/WX   TEMP    WIND        PRES    VSBY
                                AIR SEA DIR/SP/G
                 (UTC)          (F)     (DEG/KT/KT) (MB)    (MI)
150E HAT   41001 NOT AVBL
W BERMUDA  41048 1150            70 70  170/ 19/ 21 1004.1R
WVE H/P(F/S)=  7/ 7 SWL H/P/D(F/S/D)=  2/ 10/14

ATLANTIC S 41049 1050            76 76  150/ 16/ 19 1016.6
WVE H/P(F/S)=  4/ 9 SWL H/P/D(F/S/D)=  3/ 70/ 9

E BAHAMAS  41046 1150            80 79  160/ 19/ 23 1013.1R
WVE H/P(F/S)=  6/ 6 SWL H/P/D(F/S/D)=  2/ 60/ 9

NE BAHAMAS 41047 1150            78 76  210/ 27/ 33 1006.7R
WVE H/P(F/S)=  6/ 7 SWL H/P/D(F/S/D)=  2/100/ 9

120E CANVRL41010 1120            75 78  310/ 21/ 25 1003.8R

END



USA.gov is the U.S. government's official web portal to all federal, state and local government web resources and services.